STARLINK-5755 (55600 NORAD) Tracking and Keplerian Element Data

This shows tracking and keplerian element data for the satellite.

Feedback or suggestion? Click here.




ElementValue
Catalog55600
NameSTARLINK-5755
Epoch Orbit660
Epoch Day85.25001157
Epoch Year2023
RAAN103.8604
Inclination42.998
Eccentricity0.0001408
Argument of Perigee267.297
Mean Anonmoly99.1845
Mean Motion15.4893194
Decay Rate-0.00056006
L11 55600U 23020AH 23085.25001157 -.00056006 00000+0 -10132-2 0 9999
L22 55600 42.9980 103.8604 0001408 267.2970 99.1845 15.48931940 6600



Live tracking and technical data element details for STARLINK-5755 (NORAD 55600). STARLINK-5755 can be tracked NOW for your location showing map with azimuth and elevation plus other details from your city location.







IsCatalogInMostPopularTable: catalog: 55600, numindb: -1

Insert: records affected: 1


GetName: 55600 STARLINK-5755

Hit Count: inserted at: Tue, 28 Mar 2023 02:55:34 GMT